Regional Weather Roundup
Issued by NWS

Home | Current Version | Previous Version | Text Only | Print | Product List | Glossary Off
Versions: 1 2 3 4 5 6 7 8 9 10 11 12 13 14 15 16 17 18 19 20 21 22 23 24 25 26 27 28 29 30 31 32 33 34 35 36 37 38 39 40 41 42 43 44 45 46 47 48 49 50

000
ASUS43 KOAX 292010
RWRNE

WEATHER ROUNDUP FOR NEBRASKA
NATIONAL WEATHER SERVICE OMAHA NE
300 PM CDT FRI JUL 29 2016

NOTES: SATELLITE DATA IS BEING USED TO AUGMENT CLOUD COVER ABOVE
       12000 FEET.
       "FAIR" INDICATES FEW OR NO CLOUDS BELOW 12,000 FEET WITH NO
       SIGNIFICANT WEATHER AND/OR OBSTRUCTIONS TO VISIBILITY.

  * THESE STATIONS DO NOT REPORT WEATHER SUCH AS RAIN...SNOW OR FOG.

NEZ001>004-019>022-054>056-292100-
NEBRASKA PANHANDLE

CITY           SKY/WX    TMP DP  RH WIND       PRES   REMARKS
SCOTTSBLUFF    SUNNY     84  59  42 E17       30.08F
ALLIANCE       MOSUNNY   80  58  46 SE8       30.09F
CHADRON        SUNNY     85  55  35 VRB5      30.04F
KIMBALL        MOSUNNY   79  58  48 S8G18     30.16F
SIDNEY         PTSUNNY   80  56  43 S13G21    30.16S
$$

NEZ057>060-069>072-079>082-292100-
SOUTHWEST NEBRASKA

CITY           SKY/WX    TMP DP  RH WIND       PRES   REMARKS
NORTH PLATTE   MOSUNNY   79  63  57 VRB6      30.09F
IMPERIAL       PTSUNNY   79  59  50 SE8       30.11F
LEXINGTON      SUNNY     78  63  59 CALM      30.09S
MCCOOK         PTSUNNY   82  59  45 SE8       30.09F
OGALLALA       MOSUNNY   80  59  48 SE8       30.11S
$$

NEZ005>010-023>029-035>040-094-292100-
NORTH CENTRAL NEBRASKA

CITY           SKY/WX    TMP DP  RH WIND       PRES   REMARKS
VALENTINE      MOSUNNY   78  57  48 S8        30.09F
AINSWORTH      PTSUNNY   75  64  70 SE8       30.10F
BROKEN BOW     MOSUNNY   74  62  66 CALM      30.10F
O`NEILL        SUNNY     77  57  49 CALM      30.09F
ORD            CLOUDY    75  63  66 N6        30.08F
THEDFORD       PTSUNNY   78  61  55 S6        30.10F
$$

NEZ041-046>049-061>064-073>077-083>087-292100-
SOUTH CENTRAL NEBRASKA

CITY           SKY/WX    TMP DP  RH WIND       PRES   REMARKS
GRAND ISLAND   CLOUDY    75  60  59 VRB3      30.08F
AURORA         CLOUDY    75  65  71 CALM      30.08S
HASTINGS       PTSUNNY   78  63  59 VRB3      30.08F
HEBRON         CLOUDY    81  59  48 CALM      30.04F
HOLDREGE       MOSUNNY   79  62  56 CALM      30.08F
KEARNEY *      MOSUNNY   77  64  65 CALM      30.09F
YORK           CLOUDY    75  63  64 NE5       30.07S
$$

NEZ011>018-030>034-042>045-292100-
NORTHEAST NEBRASKA

CITY           SKY/WX    TMP DP  RH WIND       PRES   REMARKS
NORFOLK        PTSUNNY   79  56  45 MISG      30.06F
ALBION         MOSUNNY   77  58  51 NE5       30.08S
BLAIR          PTSUNNY   78  62  58 N8        30.05R
FREMONT        MOSUNNY   77  57  49 NW3       30.06R
TEKAMAH        SUNNY     82  58  43 N8        30.03F
WAYNE          MOSUNNY   78  59  50 NE7       30.07F
$$

NEZ050>053-065>068-078-088>093-292100-
SOUTHEAST NEBRASKA

CITY           SKY/WX    TMP DP  RH WIND       PRES   REMARKS
LINCOLN        PTSUNNY   82  64  54 N10       30.05F
OMAHA EPPLEY   MOSUNNY   81  61  50 NW8       30.03S
BEATRICE       MOSUNNY   78  64  61 N7        30.04S
FALLS CITY     MOSUNNY   81  65  58 N10       30.01F
NEBRASKA CITY  PTSUNNY   77  60  55 N3        30.04F
PLATTSMOUTH    SUNNY     80  58  46 NW7       30.04S
$$

NEZ044-045-051>053-067-292100-
OMAHA AREA

CITY           SKY/WX    TMP DP  RH WIND       PRES   REMARKS
OMAHA EPPLEY   MOSUNNY   81  61  50 NW8       30.03S
BLAIR          PTSUNNY   78  62  58 N8        30.05R
FREMONT        MOSUNNY   77  57  49 NW3       30.06R
MILLARD        MOSUNNY   80  58  47 N5        30.03S
OFFUTT AFB     PTSUNNY   80  59  49 NW6       30.02F
PLATTSMOUTH    SUNNY     80  58  46 NW7       30.04S
WAHOO          FAIR      79  59  50 N7        30.05S
$$




USA.gov is the U.S. government's official web portal to all federal, state and local government web resources and services.